Regional Weather Roundup
Issued by NWS

Home | Current Version | Previous Version | Text Only | Print | Product List | Glossary Off
Versions: 1 2 3 4 5 6 7 8 9 10 11 12 13 14 15 16 17 18 19 20 21 22 23 24 25 26 27 28 29 30 31 32 33 34 35 36 37 38 39 40 41 42 43 44 45 46 47 48 49 50

000
ASUS43 KMPX 011810
RWRMN
WEATHER ROUNDUP FOR MINNESOTA
NATIONAL WEATHER SERVICE TWIN CITIES/CHANHASSEN MN
100 PM CDT TUE SEP 01 2015


NOTE: "FAIR" INDICATES FEW OR NO CLOUDS BELOW 12,000 FEET WITH NO
SIGNIFICANT WEATHER AND/OR OBSTRUCTIONS TO VISIBILITY. N/A MEANS
CURRENT SKY AND/OR WEATHER CONDITIONS ARE NOT AVAILABLE.

MNZ060>063-068>070-011900-
   Twin Cities Metro

CITY           SKY/WX    TMP DP  RH WIND       PRES   REMARKS
TWIN CITIES    PTSUNNY   84  70  62 SE7       29.90F
6HR MIN TEMP:  70; 6HR MAX TEMP:  84;

ST PAUL        PTSUNNY   83  71  67 SE8       29.90F
CRYSTAL        PTSUNNY   85  70  60 SE8       29.88F
BLAINE         PTSUNNY   84  72  65 S5        29.90
LAKEVILLE      MOSUNNY   84  73  70 SE5       29.90F HX  91
EDEN PRAIRIE   CLOUDY    84  71  65 SE9       29.88F
6HR MIN TEMP:  70; 6HR MAX TEMP:  84;

SOUTH ST PAUL  FAIR      83  70  64 SE6       29.90F
LAKE ELMO      FAIR      82  72  69 S8        29.91F
$$
MNZ001>005-007-008-013>017-022>024-027-028-011900-
   Northwest Minnesota

CITY           SKY/WX    TMP DP  RH WIND       PRES   REMARKS
BEMIDJI        SUNNY     80  50  35 CALM      29.91S
HALLOCK        SUNNY     82  54  36 S14       29.83F
ROSEAU         SUNNY     81  54  39 SW10      29.86F
WARROAD        SUNNY     79  57  47 S9        29.87F
THIEF RVR FALL SUNNY     81  54  39 S8        29.87F
CROOKSTON      SUNNY     82  54  36 SW10      29.87F
FOSSTON        SUNNY     82  48  30 S6        29.90S
DETROIT LAKES  SUNNY     81  50  34 SE9       29.91F
MOORHEAD       SUNNY     84  50  30 SE7       29.87F
PARK RAPIDS    SUNNY     83  50  31 SE6       29.91F
MAHNOMEN       FAIR      81  48  31 SE6       29.89F
$$
MNZ006-009>011-018-025>026-011900-
   North Central Minnesota

CITY           SKY/WX    TMP DP  RH WIND       PRES   REMARKS
BAUDETTE       SUNNY     79  48  33 SW8       29.88F
FLAG ISLAND    SUNNY     72  61  68 S9        29.85F
INTL FALLS     SUNNY     78  52  40 VRB6      29.90F
6HR MIN TEMP:  50; 6HR MAX TEMP:  78;

WASKISH        SUNNY     77  61  57 W3        29.90F
BIG FORK       SUNNY     81  55  41 SW6       29.92S
LONGVILLE      SUNNY     81  54  39 CALM      29.91F
GRAND RAPIDS     N/A     79  52  38 CALM      29.92F
CRANE LAKE     CLOUDY    73  52  46 SW3       29.93S
ORR            PTSUNNY   75  52  43 CALM      29.90S
COOK           PTSUNNY   75  52  43 W6        29.93S
WALKER         FAIR      78  57  49 E5        29.91S
$$
MNZ012-019>021-037-011900-
   Northeast Minnesota

CITY           SKY/WX    TMP DP  RH WIND       PRES   REMARKS
DULUTH         PTSUNNY   80  66  62 CALM      29.91F
6HR MIN TEMP:  67; 6HR MAX TEMP:  80;

ELY            CLOUDY    75  54  46 CALM      29.93S
HIBBING        MOSUNNY   80  51  36 W5        29.92F
EVELETH        CLOUDY    77  52  41 CALM      29.93F
DULUTH HARBOR  PTSUNNY   81  72  74 CALM      29.89F
TWO HARBORS    CLOUDY    82  70  65 SW8       29.88F
SILVER BAY     CLOUDY    81  66  61 CALM      29.88F
GRAND MARAIS     N/A     58  55  90 W5        29.87S
G MARAIS ARPRT CLOUDY    75  57  53 CALM      29.94S
$$
MNZ029>031-032-039>041-046>048-054>057-064-011900-
   West Central Minnesota

CITY           SKY/WX    TMP DP  RH WIND       PRES   REMARKS
FERGUS FALLS   SUNNY     82  54  36 SE9       29.87F
WHEATON        MOSUNNY   79  64  61 SE7       29.89S
MORRIS         MOSUNNY   82  70  65 E8        29.87F
ALEXANDRIA     MOSUNNY   82  64  54 E7        29.92S
ELBOW LAKE     FAIR      81  63  53 SE7       29.89S
WADENA         SUNNY     82  54  36 E7        29.90F
GLENWOOD       MOSUNNY   82  70  65 SE6       29.91F
APPLETON       PTSUNNY   82  72  69 S9        29.88S
BENSON         PTSUNNY   81  70  69 S6        29.88F
ORTONVILLE     PTSUNNY   81  70  69 SE5       29.88S
MADISON        PTSUNNY   79  70  73 S6        29.89S
WILLMAR        FAIR      81  72  74 SE9       29.90F
$$
MNZ033>034-036-042>043-049>051-058-059-011900-
   Central Minnesota

CITY           SKY/WX    TMP DP  RH WIND       PRES   REMARKS
ST CLOUD       PTSUNNY   81  71  71 SE6       29.90S
6HR MIN TEMP:  68; 6HR MAX TEMP:  81;

SAUK CENTRE    FAIR      81  69  66 SE3       29.91S
PAYNESVILLE    PTSUNNY   80  70  72 E9        29.91S
AITKIN         SUNNY     82  63  51 CALM      29.90F
PINE RIVER     SUNNY     81  55  41 CALM      29.94F
BRAINERD       SUNNY     81  59  47 CALM      29.91F
STAPLES        SUNNY     81  52  36 E5        29.90F
LONG PRAIRIE   FAIR      79  64  61 E5        29.91F
LITTLE FALLS   MOSUNNY   79  63  57 E3        29.90F
LITCHFIELD     CLOUDY    79  73  83 SE5       29.91S
BUFFALO        CLOUDY    80  69  70 E3        29.90F
MAPLE LAKE     CLOUDY    80  73  79 CALM      29.91F
$$
MNZ037-044-045-052-053-011900-
   East Central Minnesota

CITY           SKY/WX    TMP DP  RH WIND       PRES   REMARKS
PRINCETON      PTSUNNY   81  72  74 SE5       29.90F
MORA           PTSUNNY   75  68  78 S3        29.92S
CAMBRIDGE      CLOUDY    82  70  65 E5        29.88F
RUSH CITY      CLOUDY    80  71  73 S3        29.90F
MOOSE LAKE     PTSUNNY   79  70  73 CALM      29.89F
HINCKLEY       MOCLDY    79  72  78 S5        29.91F
CLOQUET        PTSUNNY   79  66  65 CALM      29.91F
MCGREGOR       MOSUNNY   81  64  57 CALM      29.91F
$$
MNZ071>073-080-081-089-090-097-098-011900-
   Southwest Minnesota

CITY           SKY/WX    TMP DP  RH WIND       PRES   REMARKS
MONTEVIDEO     PTSUNNY   82  72  69 SW9       29.91R
GRANITE FALLS  CLOUDY    77  70  79 SE7       29.90R
CANBY          CLOUDY    77  70  78 SW7       29.92S
MARSHALL       CLOUDY    77  66  69 W9        29.93R
REDWOOD FALLS  CLOUDY    79  71  76 SE10      29.87F
OLIVIA         CLOUDY    73  68  83 SE7       29.88F
PIPESTONE      CLOUDY    79  68  69 CALM      29.92F
WINDOM         PTSUNNY   82  70  65 CALM      29.91S
WORTHINGTON    PTSUNNY   79  70  73 S7        29.92S
JACKSON        PTSUNNY   81  72  74 S9        29.92F
TRACY          CLOUDY    81  72  74 S9        29.89S
SLAYTON        CLOUDY    80  71  74 CALM      29.94R
$$
MNZ065>067-074>077-082>085-091>093-011900-
   South Central Minnesota

CITY           SKY/WX    TMP DP  RH WIND       PRES   REMARKS
MANKATO        PTSUNNY   82  72  69 S7        29.90F
NEW ULM        CLOUDY    81  72  74 SE3       29.90S
ST JAMES       PTSUNNY   84  73  70 SE9       29.90F HX  91
FAIRMONT       MOSUNNY   81  68  65 S9        29.91S
GLENCOE        CLOUDY    82  74  76 S5        29.90S
FARIBAULT      MOSUNNY   84  73  70 SE5       29.91F HX  91
OWATONNA       MOSUNNY   84  72  65 SE6       29.91F
WASECA         MOSUNNY   82  72  69 SE6       29.92F
ALBERT LEA     MOSUNNY   82  73  74 SE8       29.92F
$$
MNZ078>079-086>088-094>096-011900-
   Southeast Minnesota

CITY           SKY/WX    TMP DP  RH WIND       PRES   REMARKS
ROCHESTER      SUNNY     84  74  71 S7        29.94F HX  91
6HR MIN TEMP:  67; 6HR MAX TEMP:  84;

RED WING       MOSUNNY   86  72  62 S6        29.89F HX  92
STANTON        MOSUNNY   85  72  63 SE5       29.90S HX  91
DODGE CENTER   SUNNY     82  73  74 S7        29.93F
WINONA         MOSUNNY   88  72  58 S6        29.92F HX  94
AUSTIN         SUNNY     82  72  69 S7        29.93F
PRESTON        SUNNY     82  71  70 S7        29.96F
$$
ABBREVIATIONS USED IN REMARKS
   TC - TEMPERATURES IN CELSIUS
  WCI - WIND CHILL INDEX
   HX - HEAT INDEX
  VSB - VISIBILITY
$$


USA.gov is the U.S. government's official web portal to all federal, state and local government web resources and services.